Date,TemperatureHighF,TemperatureAvgF,TemperatureLowF,DewpointHighF,DewpointAvgF,DewpointLowF,HumidityHigh,HumidityAvg,HumidityLow,PressureMaxIn,PressureMinIn,WindSpeedMaxMPH,WindSpeedAvgMPH,GustSpeedMaxMPH,PrecipitationSumIn
2013-1-1,36,28,18,34,24,13,93,86,79,30.25,30.01,4,1,9,0.00
2013-1-2,34,23,13,21,15,9,87,74,42,30.26,30.15,3,1,6,0.00
2013-1-3,42,28,18,27,21,15,90,77,45,30.39,30.22,2,0,6,0.01
2013-1-4,46,31,17,25,21,14,90,69,37,30.45,30.29,4,1,12,0.00
2013-1-5,42,34,20,32,27,16,86,75,61,30.29,30.13,7,1,9,0.00
2013-1-6,42,31,20,29,22,15,87,70,43,30.35,30.15,3,1,10,0.00
2013-1-7,50,32,16,27,21,13,87,64,39,30.34,30.09,7,1,13,0.00
2013-1-8,54,41,25,45,31,20,92,68,44,30.15,30.00,6,1,10,0.34
2013-1-9,56,50,45,44,39,33,93,67,50,30.30,30.15,3,1,5,0.02
2013-1-10,52,48,43,50,45,34,94,89,56,30.19,29.75,6,2,10,0.40
2013-1-11,66,54,46,47,44,41,92,71,42,29.79,29.64,9,4,12,0.00
2013-1-12,54,42,28,47,34,24,89,75,46,29.93,29.73,7,2,15,0.28
2013-1-13,27,22,13,24,17,9,88,80,74,30.35,29.90,4,2,6,0.00
2013-1-14,30,23,12,16,13,8,84,67,51,30.44,30.35,4,1,6,0.01
2013-1-15,33,24,17,20,14,10,84,67,41,30.35,30.16,3,1,5,0.00
2013-1-16,42,26,12,22,16,8,86,68,41,30.17,30.06,4,1,9,0.01
2013-1-17,45,36,23,31,25,19,87,66,45,30.46,30.30,4,2,9,0.00
2013-1-18,57,38,19,29,22,16,89,58,24,30.48,30.13,9,3,13,0.00
2013-1-19,63,48,32,35,30,24,86,52,32,30.14,29.97,9,3,17,0.00
2013-1-20,53,41,28,34,21,13,85,48,23,30.26,30.11,4,1,6,0.00
2013-1-21,34,26,19,15,12,8,69,55,42,30.37,30.24,4,2,6,0.00
2013-1-22,34,31,28,16,14,12,58,50,46,30.34,30.23,4,2,7,0.00
2013-1-23,44,41,37,35,28,23,71,60,58,30.24,30.18,3,2,4,0.00
2013-1-24,36,30,24,23,13,7,60,49,40,30.39,30.13,7,4,13,0.00
2013-1-25,49,36,27,28,25,16,88,66,40,30.23,30.09,5,1,7,0.00
2013-1-26,54,34,27,29,24,21,86,72,27,30.26,30.20,6,1,9,0.00
2013-1-28,74,69,63,60,58,55,81,68,55,29.86,29.72,11,6,17,0.00
2013-1-29,68,62,53,60,56,51,94,83,71,29.73,29.39,8,3,20,2.60
2013-1-30,28,27,26,19,18,17,71,69,66,30.00,29.86,5,3,11,0.01
2013-1-31,41,26,14,27,17,1,87,70,54,30.41,29.97,6,2,14,0.00
2013-2-1,33,28,13,15,10,1,64,47,36,30.49,30.18,5,2,8,0.01
2013-2-2,52,37,24,34,25,13,84,63,48,30.19,30.08,4,1,10,0.01
2013-2-3,51,42,33,30,24,18,76,51,28,30.23,29.92,5,1,10,0.00
2013-2-4,61,47,32,42,32,23,83,56,39,29.92,29.74,7,2,12,0.03
2013-2-5,63,41,25,40,30,22,92,68,30,30.03,29.87,4,1,7,0.00
2013-2-6,58,44,26,37,32,23,90,65,39,30.12,29.92,7,2,14,0.00
2013-2-7,52,46,40,49,42,36,91,85,74,30.03,29.81,5,2,9,0.32
2013-2-8,48,38,32,37,30,26,89,74,51,30.28,30.03,5,2,9,0.00
2013-2-9,40,36,32,35,30,27,89,80,62,30.22,29.85,8,4,16,0.12
2013-2-10,61,49,38,52,35,24,93,65,27,29.93,29.55,10,5,19,0.16
2013-2-11,51,37,27,29,25,23,86,64,34,30.13,29.93,3,1,7,0.00
2013-2-12,46,34,23,32,27,20,91,77,49,30.12,29.89,4,0,8,0.03
2013-2-13,48,36,30,36,31,27,93,82,53,29.94,29.85,5,1,11,0.22
2013-2-14,55,43,30,35,29,23,89,58,39,30.08,29.86,3,1,6,0.00
2013-2-15,43,34,22,30,18,8,79,54,28,30.26,30.07,4,1,9,0.00
2013-2-16,38,30,21,22,18,13,81,62,40,30.30,30.10,4,1,7,0.01
2013-2-17,62,46,29,31,24,18,64,44,27,30.10,29.76,7,2,16,0.00
2013-2-18,57,47,31,50,37,21,86,67,54,30.03,29.50,11,4,18,0.04
2013-2-19,42,31,22,22,15,9,75,54,28,30.28,30.03,5,2,11,0.00
2013-2-20,35,31,23,15,9,6,64,41,33,30.31,30.10,3,1,6,0.00
2013-2-21,32,30,28,30,24,11,92,80,43,30.10,29.70,5,1,11,0.00
2013-2-22,34,27,20,31,21,17,92,77,61,30.09,29.78,0,0,0,0.18
2013-2-23,40,27,16,24,19,13,88,73,46,30.09,29.94,3,0,6,0.22
2013-2-24,54,38,20,33,26,16,89,64,43,30.00,29.84,8,2,11,0.14
2013-2-25,46,40,32,32,26,24,83,60,41,29.86,29.56,6,2,12,0.18
2013-2-26,33,32,32,30,29,29,90,88,87,29.79,29.49,4,2,8,0.24
2013-2-27,33,32,31,30,27,25,91,80,73,29.99,29.76,5,2,11,0.07
2013-2-28,33,31,28,26,24,22,81,77,72,30.15,29.97,4,2,9,0.01
2013-3-1,30,28,27,25,23,22,84,81,75,30.22,30.12,3,1,11,0.00
2013-3-2,33,26,19,23,18,15,85,72,55,30.31,30.20,4,2,11,0.02
2013-3-3,54,38,18,26,22,14,87,57,32,30.20,29.79,7,3,13,0.01
2013-3-4,64,49,38,44,35,26,84,61,43,29.79,29.55,6,3,11,0.00
2013-3-5,42,36,29,33,24,19,89,64,46,30.25,29.75,7,4,14,0.07
2013-3-6,45,33,25,24,20,15,78,59,40,30.37,30.23,5,2,10,0.00
2013-3-7,59,45,30,30,26,22,78,50,24,30.27,30.11,6,2,12,0.00
2013-3-8,57,47,36,38,32,29,78,58,41,30.24,30.02,7,3,13,0.00
2013-3-9,71,55,44,55,43,35,91,66,36,30.02,29.63,11,4,17,0.86
2013-3-10,57,47,32,55,44,29,93,89,70,29.84,29.55,7,3,18,1.09
2013-3-11,42,32,28,30,25,22,89,74,48,30.00,29.80,5,2,17,0.00
2013-3-12,54,38,25,30,25,19,90,63,33,30.26,29.99,5,1,16,0.01
2013-3-13,47,35,26,26,22,16,81,60,30,30.43,30.26,4,1,12,0.00
2013-3-14,72,48,26,40,30,21,87,54,27,30.35,30.02,10,2,14,0.00
2013-3-15,67,42,36,45,36,33,90,83,43,30.03,29.64,5,0,6,0.00
2013-3-16,67,56,43,47,42,36,76,59,44,29.86,29.63,8,4,15,0.00
2013-3-17,43,41,40,39,38,36,93,89,75,29.85,29.66,6,2,13,1.42
2013-3-18,54,43,32,41,36,28,94,78,43,30.00,29.64,4,1,10,0.01
2013-3-19,48,37,26,31,24,12,90,64,31,30.21,30.00,6,1,14,0.00
2013-3-20,43,34,25,31,18,8,92,57,24,30.30,30.11,6,2,12,0.00
2013-3-21,37,30,23,28,21,11,91,71,36,30.10,29.87,4,1,6,0.00
2013-3-22,38,34,30,33,30,27,91,89,82,29.92,29.84,3,1,9,0.36
2013-3-23,41,38,34,39,35,32,93,89,77,29.92,29.68,2,0,5,0.17
2013-3-24,41,33,28,39,30,20,93,87,72,30.04,29.53,6,3,13,0.49
2013-3-25,33,27,23,24,20,16,81,74,66,30.27,30.02,5,3,11,0.01
2013-3-26,41,31,22,27,23,19,88,72,49,30.38,30.27,3,1,8,0.00
2013-3-27,52,38,21,29,24,18,89,61,34,30.33,30.15,4,1,10,0.00
2013-3-28,69,56,43,45,37,29,64,51,39,30.18,30.03,4,1,10,0.00
2013-3-29,68,57,49,53,48,40,93,73,51,30.11,30.03,4,0,6,0.19
2013-3-30,67,55,49,56,49,45,91,79,60,30.06,29.76,6,2,10,0.20
2013-3-31,67,54,43,49,43,36,95,69,34,29.90,29.77,4,1,7,0.34
2013-4-1,54,44,35,41,36,32,93,73,51,30.12,29.89,6,2,10,0.00
2013-4-2,41,38,35,32,30,27,81,70,58,30.26,30.19,2,1,9,0.18
2013-4-3,55,43,29,32,24,19,85,52,26,30.26,30.12,5,1,10,0.00
2013-4-4,56,46,34,37,30,24,83,55,32,30.12,29.99,5,1,9,0.00
2013-4-5,70,48,28,41,32,25,91,60,27,30.13,29.96,4,1,9,0.01
2013-4-6,74,67,53,46,44,41,75,45,32,29.82,29.67,13,5,22,0.00
2013-4-7,76,63,44,59,50,41,90,64,39,29.83,29.64,9,2,15,0.00
2013-4-8,74,66,59,59,56,53,80,71,59,29.70,29.62,9,4,12,0.00
2013-4-9,78,69,61,62,57,54,79,67,50,29.72,29.62,8,3,14,0.00
2013-4-10,70,54,39,64,49,36,92,86,65,29.77,29.60,4,1,13,1.03
2013-4-11,49,40,34,36,32,30,93,75,51,29.79,29.68,5,2,11,0.01
2013-4-12,54,42,30,36,31,27,92,68,46,29.98,29.74,6,2,12,0.00
2013-4-13,69,52,34,44,38,31,93,62,37,30.02,29.73,8,2,13,0.00
2013-4-14,57,54,53,46,44,42,75,68,57,29.74,29.61,3,2,6,0.00
2013-4-16,63,54,49,54,49,46,92,84,71,29.97,29.82,6,2,11,0.00
2013-4-17,82,64,48,67,57,46,94,79,55,29.93,29.65,12,3,20,0.00
2013-4-18,64,44,38,62,38,27,94,80,64,29.89,29.47,7,3,11,1.48
2013-4-19,54,42,33,33,27,22,84,57,32,30.05,29.89,6,3,16,0.00
2013-4-20,65,49,30,40,33,28,93,59,30,30.17,30.05,3,0,9,0.00
2013-4-21,67,56,49,41,39,36,72,54,32,30.22,30.09,8,3,16,0.00
2013-4-22,69,58,46,43,38,34,70,49,28,30.13,29.84,7,2,12,0.00
2013-4-23,60,48,36,52,43,34,92,83,54,30.04,29.76,4,2,12,0.49
2013-4-24,53,42,33,36,32,26,91,71,37,30.26,30.03,4,2,10,0.02
2013-4-25,68,50,28,42,33,26,93,58,24,30.32,30.14,3,1,6,0.00
2013-4-26,59,50,46,46,42,35,92,78,41,30.27,30.09,7,3,11,1.35
2013-4-27,55,51,47,51,48,44,93,91,87,30.12,29.92,3,1,8,0.19
2013-4-28,72,57,49,54,48,44,93,74,39,29.97,29.79,3,0,6,0.01
2013-4-29,85,67,46,63,52,43,93,62,27,29.84,29.65,7,2,12,0.00
2013-4-30,82,71,53,57,50,42,91,52,27,29.77,29.67,9,3,18,0.00
2013-5-1,81,69,53,63,56,47,88,65,42,29.97,29.77,8,2,16,0.00
2013-5-2,60,48,35,58,44,32,93,85,75,30.18,29.95,4,2,10,0.12
2013-5-3,37,34,32,34,31,30,92,91,88,30.16,29.87,4,2,9,0.68
2013-5-4,45,39,33,37,34,31,93,82,66,29.95,29.80,3,1,7,0.30
2013-5-5,60,50,41,48,43,37,89,78,64,30.01,29.92,4,1,10,0.00
2013-5-6,67,57,50,55,51,48,93,80,61,29.99,29.90,3,1,9,0.00
2013-5-7,76,62,43,57,50,41,94,68,39,29.99,29.89,2,0,7,0.00
2013-5-8,75,62,47,59,53,45,93,75,54,30.01,29.82,2,0,7,0.02
2013-5-9,76,65,57,62,57,54,92,76,54,29.90,29.78,8,2,11,0.88
2013-5-10,66,60,50,59,55,47,93,82,65,29.98,29.80,4,1,9,0.00
2013-5-11,72,57,42,55,42,30,95,64,26,30.11,29.98,5,1,10,0.01
2013-5-12,66,52,34,44,35,26,93,58,24,30.22,30.09,3,1,8,0.00
2013-5-13,79,60,42,52,44,37,92,61,34,30.13,29.96,6,2,12,0.00
2013-5-14,88,80,61,54,51,46,71,37,24,29.93,29.81,9,4,19,0.00
2013-5-15,82,67,54,66,58,49,93,75,56,29.88,29.78,8,2,11,0.15
2013-5-16,66,63,62,62,60,59,94,90,79,29.83,29.76,3,1,7,0.07
2013-5-17,78,68,62,65,61,58,94,79,54,29.85,29.77,2,0,4,0.00
2013-5-18,83,73,62,71,66,58,93,81,65,29.84,29.71,7,2,12,0.00
2013-5-19,87,78,69,70,66,61,93,71,42,29.75,29.53,9,4,20,0.00
2013-5-20,75,70,64,68,64,59,92,83,72,29.74,29.61,7,2,11,1.04
2013-5-21,70,64,60,62,58,54,91,82,67,29.77,29.51,6,2,12,0.01
2013-5-22,73,64,53,59,55,51,93,75,54,29.85,29.67,6,1,11,0.00
2013-5-23,74,63,50,58,53,48,95,73,51,30.09,29.85,4,1,9,0.00
2013-5-24,74,63,50,52,48,43,91,61,34,30.24,30.09,5,1,14,0.00
2013-5-25,80,68,55,63,54,43,75,63,52,30.17,29.97,6,2,13,0.00
2013-5-26,85,73,61,67,62,57,87,68,45,30.03,29.87,8,2,13,0.00
2013-5-27,83,75,65,68,64,60,87,70,57,29.88,29.66,9,4,15,0.00
2013-5-28,84,74,70,68,64,61,81,70,51,29.78,29.64,9,4,16,0.02
2013-5-29,81,75,68,66,63,61,83,68,55,29.80,29.65,8,4,16,0.00
2013-5-30,83,71,62,66,63,59,94,77,51,29.76,29.63,13,4,28,2.90
2013-5-31,84,74,65,71,67,61,92,80,62,29.72,29.56,9,3,13,0.31
2013-6-1,78,68,59,64,60,55,92,78,54,29.88,29.59,5,2,11,0.80
2013-6-2,65,60,53,57,54,50,92,82,69,29.98,29.87,2,1,6,0.01
2013-6-3,76,62,46,58,52,44,95,73,45,30.01,29.84,3,1,10,0.00
2013-6-4,74,67,60,63,58,55,87,75,63,29.92,29.83,5,1,12,0.00
2013-6-5,76,66,60,66,61,57,90,83,68,29.91,29.74,5,0,7,0.04
2013-6-6,72,63,56,63,58,53,95,84,63,29.85,29.79,3,0,5,0.04
2013-6-7,75,62,49,58,52,47,95,73,47,29.89,29.82,4,1,6,0.00
2013-6-8,79,66,47,60,53,45,94,67,39,29.88,29.74,4,1,9,0.00
2013-6-9,80,68,60,65,59,56,91,73,46,29.83,29.72,4,1,6,0.40
2013-6-10,89,74,58,71,64,55,92,72,51,29.80,29.72,4,0,7,0.00
2013-6-11,93,80,64,71,65,58,92,64,32,29.87,29.78,7,2,13,0.00
2013-6-12,91,82,69,73,68,65,89,65,44,29.83,29.74,10,4,15,0.00
2013-6-13,85,78,69,70,64,58,79,64,49,29.91,29.77,4,1,7,0.00
2013-6-14,88,76,61,71,65,59,93,71,53,29.94,29.83,7,1,12,0.00
2013-6-15,76,71,67,70,65,63,93,82,67,29.99,29.82,8,1,16,4.26
2013-6-16,88,76,66,73,68,62,93,79,56,29.90,29.78,5,1,11,1.24
2013-6-17,74,70,64,68,66,62,92,87,77,29.89,29.74,4,0,6,0.22
2013-6-18,86,71,57,68,61,55,95,75,45,29.92,29.84,4,0,7,0.01
2013-6-19,86,74,59,68,63,57,94,71,44,29.96,29.86,3,0,6,0.01
2013-6-20,88,77,62,70,66,60,93,70,49,29.98,29.87,6,2,12,0.00
2013-6-21,91,81,70,74,70,66,87,69,52,29.96,29.87,6,2,13,0.00
2013-6-22,90,80,72,74,70,67,89,72,53,29.96,29.83,6,2,12,0.00
2013-6-23,90,81,70,73,69,66,87,69,49,29.89,29.78,7,2,10,0.00
2013-6-24,88,78,71,72,69,66,85,74,54,29.94,29.87,7,2,10,0.00
2013-6-26,84,80,78,74,73,72,85,80,72,29.77,29.74,0,0,12,0.00
2013-6-27,97,84,71,78,74,69,93,73,48,29.83,29.71,3,0,6,0.00
2013-6-28,89,82,71,75,65,58,81,56,43,29.81,29.70,7,1,15,0.68
2013-6-29,84,74,61,62,57,50,90,59,34,29.74,29.66,5,2,12,0.00
2013-7-11,89,83,72,69,63,56,75,52,33,29.91,29.84,4,1,6,0.00
2013-7-12,89,76,63,62,58,50,82,57,28,29.98,29.88,4,1,10,0.00
2013-7-13,83,69,57,62,58,53,90,69,41,29.98,29.84,3,0,7,0.00
2013-7-14,88,75,60,63,58,54,90,60,32,29.97,29.89,3,1,7,0.00
2013-7-15,89,77,69,69,66,60,93,71,45,30.08,29.97,5,1,10,0.15
2013-7-16,91,77,68,74,69,66,94,79,46,30.16,30.06,6,0,6,0.01
2013-7-17,93,80,67,72,68,65,93,70,42,30.22,30.06,3,0,6,0.00
2013-7-18,96,83,68,72,66,60,91,61,33,30.10,29.90,2,0,6,0.00
2013-7-19,76,74,73,67,66,66,79,75,72,29.92,29.90,0,0,2,0.00
2013-7-21,79,76,74,71,71,70,90,84,75,29.76,29.74,0,0,1,0.10
2013-7-22,85,73,66,71,67,63,92,83,61,29.82,29.72,8,2,9,0.11
2013-7-23,94,83,72,76,70,66,82,66,51,29.77,29.66,6,2,12,0.00
2013-7-24,86,76,68,70,66,59,89,71,49,29.91,29.75,4,1,7,0.00
2013-7-25,88,74,59,66,61,57,94,67,40,30.00,29.91,3,0,7,0.00
2013-7-26,72,69,65,68,65,62,93,87,72,29.97,29.89,2,0,4,1.27
2013-7-27,77,69,62,65,60,56,95,75,50,29.97,29.88,3,1,6,0.00
2013-7-28,73,67,60,64,61,58,93,82,65,29.97,29.90,2,0,4,0.00
2013-7-29,83,73,65,71,66,62,91,80,64,30.00,29.90,5,1,13,0.17
2013-7-30,82,74,70,74,71,68,94,89,75,29.95,29.87,5,1,9,2.60
2013-7-31,85,77,70,75,70,66,95,80,58,29.96,29.88,4,1,9,0.00
2013-8-1,86,75,62,68,64,60,94,71,43,30.00,29.88,2,0,5,0.00
2013-8-2,87,76,69,75,68,64,86,77,64,29.89,29.75,6,1,10,0.00
2013-8-3,88,77,69,74,69,66,97,79,57,29.98,29.78,5,1,9,1.34
2013-8-4,75,72,71,72,70,68,93,92,88,30.07,29.94,2,0,4,0.89
2013-8-5,86,76,71,77,72,68,92,87,71,29.96,29.71,4,1,7,0.29
2013-8-6,81,75,71,75,71,68,93,87,79,29.84,29.71,6,1,11,0.47
2013-8-7,85,76,71,74,71,68,93,86,64,29.86,29.69,6,1,11,0.39
2013-8-8,85,76,70,72,70,68,94,83,58,29.87,29.75,3,0,5,0.58
2013-8-9,81,75,72,71,69,67,93,82,65,29.94,29.82,2,0,5,0.02
2013-8-10,83,75,68,68,66,62,89,75,52,30.03,29.94,4,1,10,0.00
2013-8-11,84,75,67,73,69,64,93,82,68,30.01,29.92,4,1,7,0.00
2013-8-12,83,74,69,74,70,67,95,86,63,29.96,29.83,3,0,4,0.89
2013-8-13,82,72,64,70,64,60,95,77,52,29.98,29.88,5,1,9,0.01
2013-8-14,76,68,58,60,57,52,93,71,46,30.08,29.97,3,1,10,0.00
2013-8-15,75,64,52,58,54,49,94,72,46,30.07,29.95,2,0,9,0.00
2013-8-16,75,65,57,59,56,54,93,76,53,30.05,29.97,2,0,5,0.00
2013-8-17,79,65,53,62,57,51,95,77,51,30.07,29.98,2,0,6,0.00
2013-8-18,82,69,57,65,61,55,95,76,49,30.06,29.97,2,0,5,0.00
2013-8-19,84,71,58,68,62,56,95,76,45,30.03,29.92,3,0,5,0.00
2013-8-20,85,72,59,69,63,57,95,76,47,30.00,29.93,3,0,6,0.00
2013-8-21,88,74,60,71,65,58,95,76,47,30.02,29.93,4,1,8,0.00
2013-8-22,90,76,64,73,67,62,94,76,44,30.03,29.92,2,0,6,0.00
2013-8-23,90,77,64,73,68,62,95,76,47,30.00,29.91,2,0,5,0.00
2013-8-24,89,78,68,72,68,65,92,72,49,30.06,29.94,4,0,6,0.00
2013-8-25,92,78,66,73,68,61,93,71,36,30.13,30.03,3,0,8,0.00
2013-8-26,91,79,69,73,70,66,93,75,48,30.11,29.99,3,1,7,0.00
2013-8-27,91,77,66,70,67,64,94,75,43,30.02,29.93,4,1,7,0.00
2013-8-29,95,87,76,74,72,69,89,62,44,29.93,29.86,3,0,5,0.00
2013-8-30,95,82,70,75,71,66,94,72,40,29.90,29.76,4,1,6,0.00
2013-8-31,97,82,68,75,70,66,94,69,39,29.80,29.68,5,1,11,0.00
2013-9-1,78,73,70,69,68,68,91,87,74,29.80,29.74,0,0,0,0.02
2013-9-2,84,75,64,69,63,60,93,69,44,29.90,29.79,4,1,6,0.01
2013-9-3,86,70,55,64,58,53,95,71,36,29.98,29.89,2,0,4,0.00
2013-9-4,87,71,54,64,58,52,95,70,33,30.07,29.96,2,0,6,0.00
2013-9-5,87,71,56,65,59,54,95,70,35,30.10,30.01,3,0,5,0.00
2013-9-6,87,72,57,65,60,54,94,70,34,30.07,29.93,2,0,7,0.00
2013-9-7,93,75,58,71,63,56,94,69,38,29.96,29.84,4,1,7,0.00
2013-9-8,92,82,67,73,69,64,93,68,43,29.87,29.77,2,0,4,0.00
2013-9-9,95,79,65,71,66,60,94,68,32,29.89,29.81,5,1,6,0.00
2013-9-10,94,77,63,69,64,59,94,68,32,30.01,29.87,5,1,9,0.00
2013-9-11,94,77,64,70,65,62,93,71,37,30.05,29.94,2,0,4,0.00
2013-9-12,89,77,66,70,66,63,93,71,49,29.99,29.90,3,1,9,0.00
2013-9-13,77,68,53,64,51,47,89,57,40,30.03,29.93,4,1,9,0.00
2013-9-14,78,63,46,55,50,44,93,66,34,30.04,29.92,4,1,8,0.00
2013-9-15,87,69,56,63,55,49,80,61,41,29.97,29.90,4,1,10,0.00
2013-9-16,75,69,65,67,64,60,92,84,76,30.10,29.95,1,0,5,0.12
2013-9-17,80,71,63,67,64,61,93,79,60,30.09,29.92,5,0,7,1.08
2013-9-18,85,74,68,72,67,64,90,79,58,29.93,29.83,4,0,8,0.13
2013-9-19,90,78,71,71,67,65,86,72,47,29.89,29.76,7,1,15,0.00
2013-9-20,74,66,56,68,61,51,95,84,60,29.89,29.79,5,0,10,1.06
2013-9-21,73,59,46,54,48,43,95,70,36,29.94,29.85,5,1,10,0.00
2013-9-22,76,59,42,55,49,40,95,72,40,29.93,29.81,3,0,7,0.01
2013-9-23,77,62,44,56,51,43,95,70,42,29.88,29.75,7,1,10,0.00
2013-9-24,78,67,57,60,56,54,88,70,48,29.82,29.72,5,1,10,0.01
2013-9-25,76,65,58,61,58,55,92,81,54,29.77,29.74,0,0,0,0.00
2013-9-26,82,67,52,62,57,50,95,73,46,29.88,29.77,7,1,9,0.01
2013-9-29,74,66,54,56,53,49,92,67,42,29.97,29.86,2,0,7,0.02
2013-9-30,76,66,53,64,61,51,95,84,61,29.88,29.76,6,1,9,0.00
2013-10-1,83,71,64,70,64,61,95,81,51,29.90,29.80,5,1,11,0.00
2013-10-2,80,71,60,70,66,58,94,84,66,29.94,29.82,5,1,11,0.01
2013-10-3,84,74,66,69,66,63,92,78,55,29.85,29.73,7,2,11,0.00
2013-10-4,84,75,68,70,66,62,91,76,56,29.83,29.75,7,2,14,0.00
2013-10-5,72,60,47,68,57,45,94,90,80,29.93,29.79,3,0,4,1.45
2013-10-6,59,51,42,46,42,39,94,73,52,29.92,29.86,4,1,13,0.02
2013-10-7,70,55,42,52,45,40,94,72,40,30.08,29.92,3,0,7,0.00
2013-10-8,71,55,40,52,47,38,95,75,48,30.11,30.00,6,1,9,0.00
2013-10-9,73,57,41,54,47,39,94,72,42,30.06,29.98,4,0,6,0.00
2013-10-10,50,46,44,47,44,42,93,92,90,30.05,29.99,0,0,0,0.00
2013-10-11,77,69,57,63,60,54,92,74,60,29.89,29.76,7,2,13,0.01
2013-10-12,71,62,49,60,55,47,92,81,56,30.12,29.81,5,0,6,0.31
2013-10-13,70,58,49,49,46,40,93,65,42,30.29,30.12,3,0,9,0.04
2013-10-14,65,58,50,59,51,42,91,78,57,30.20,29.90,5,1,9,0.02
2013-10-15,63,59,51,61,55,46,94,86,67,29.98,29.79,6,1,7,0.31
2013-10-16,59,50,39,46,42,36,91,75,57,30.05,29.93,3,0,6,0.00
2013-10-17,63,52,41,46,43,39,92,74,45,29.98,29.89,4,0,5,0.00
2013-10-18,59,46,37,46,41,35,95,82,60,30.03,29.94,4,1,6,0.16
2013-10-19,58,44,36,42,37,33,92,77,42,30.07,29.95,4,1,9,0.03
2013-10-20,68,51,36,45,39,32,93,68,32,29.96,29.81,7,2,13,0.00
2013-10-21,56,45,34,43,38,32,94,78,50,30.05,29.88,2,0,3,0.00
2013-10-22,66,48,30,46,37,29,94,71,40,30.04,29.84,6,1,12,0.00
2013-10-23,56,44,32,42,35,30,92,72,46,30.14,29.98,2,0,6,0.00
2013-10-24,51,42,31,38,32,24,91,69,38,30.39,30.05,5,1,10,0.00
2013-10-25,55,40,26,32,27,23,92,65,31,30.47,30.26,4,1,9,0.00
2013-10-29,65,62,57,63,60,55,94,93,92,30.03,29.91,2,1,14,1.52
2013-10-30,67,64,62,63,61,58,93,90,84,29.95,29.72,7,2,20,0.64
2013-10-31,73,60,48,63,56,46,93,89,66,29.72,29.34,7,1,15,0.33
2013-11-1,65,51,40,47,42,38,95,74,43,29.91,29.63,4,0,13,0.01
2013-11-2,48,44,40,40,38,36,85,81,75,30.08,29.89,2,0,10,0.00
2013-11-3,58,53,44,40,38,36,87,57,44,30.20,29.97,9,4,13,0.01
2013-11-4,60,53,49,49,44,38,87,72,62,30.11,29.96,8,3,13,0.00
2013-11-5,59,56,53,57,53,49,93,91,87,30.10,29.87,6,3,11,0.61
2013-11-6,60,46,38,58,41,32,93,85,72,30.30,29.80,6,2,10,0.50
2013-11-7,59,41,28,41,33,26,93,75,39,30.38,30.27,3,0,9,0.00
2013-11-8,64,46,28,41,33,27,95,65,30,30.30,30.01,8,2,12,0.00
2013-11-9,66,55,40,45,40,37,90,61,39,30.21,30.05,5,1,9,0.00
2013-11-10,64,47,34,40,36,31,94,71,30,30.34,30.20,2,0,7,0.00
2013-11-11,62,50,36,51,43,34,91,78,59,30.39,30.10,7,1,14,0.00
2013-11-12,38,30,20,34,18,11,88,62,39,30.73,30.39,6,2,12,0.00
2013-11-13,49,32,16,21,16,12,88,56,23,30.68,30.26,5,1,9,0.00
2013-11-14,55,42,26,27,20,15,69,43,21,30.26,29.97,6,2,10,0.00
2013-11-15,57,49,43,47,40,26,85,72,46,29.98,29.80,6,2,11,0.01
2013-11-16,70,62,52,61,54,47,89,77,60,29.81,29.49,12,5,16,0.03
2013-11-17,68,59,49,61,27,20,79,31,23,29.98,29.49,5,2,13,0.00
2013-11-18,59,44,33,39,30,22,86,61,27,30.24,29.98,4,0,12,0.00
2013-11-19,50,35,32,32,30,28,90,82,46,30.24,30.20,5,0,7,0.00
2013-11-20,56,55,54,32,29,25,43,37,30,29.94,29.86,4,1,16,0.06
2013-11-21,54,50,43,49,45,32,94,84,43,30.19,29.92,4,1,6,0.91
2013-11-22,42,32,30,40,29,26,93,89,84,30.50,30.19,5,2,10,0.00
2013-11-23,31,30,30,28,25,15,87,79,52,30.60,30.49,4,2,7,0.00
2013-11-24,20,20,20,11,11,11,65,65,65,30.67,30.67,0,0,11,0.00
2013-11-26,40,31,23,26,19,12,66,61,55,30.29,30.08,6,3,10,0.01
2013-11-27,34,24,17,15,11,8,83,60,37,30.40,30.27,4,1,8,0.00
2013-11-28,52,35,17,29,20,12,83,58,36,30.36,30.24,6,1,10,0.00
2013-11-30,61,49,37,42,38,33,87,67,47,30.16,30.04,7,2,12,0.00
2013-12-1,55,43,30,48,40,28,95,88,75,30.08,29.82,3,0,6,0.00
2013-12-2,59,47,35,48,43,32,95,87,66,29.83,29.60,5,1,9,0.00
2013-12-3,58,45,31,52,41,29,95,88,74,29.62,29.51,3,0,5,0.01
2013-12-4,64,49,31,51,43,26,94,82,50,29.88,29.49,6,2,11,0.00
2013-12-5,31,23,18,26,17,13,86,78,65,30.30,29.87,4,2,7,0.00
2013-12-6,19,17,12,14,11,3,86,78,64,30.58,30.25,4,2,9,0.00
2013-12-7,19,11,7,10,2,-1,71,66,54,30.65,30.32,3,1,9,0.05
2013-12-8,28,22,18,26,18,6,92,82,56,30.33,29.99,3,1,5,0.00
2013-12-9,28,22,18,25,16,11,89,79,62,30.33,30.12,3,1,4,0.00
2013-12-10,32,17,1,15,8,-3,85,70,46,30.40,30.26,3,0,7,0.18
2013-12-11,34,25,10,21,14,5,89,63,48,30.62,30.47,3,1,9,0.10
2013-12-12,42,22,4,19,11,0,85,65,34,30.62,30.24,4,1,7,0.07
2013-12-13,34,30,22,32,25,14,93,81,64,30.24,29.84,4,2,7,0.25
2013-12-14,32,30,28,29,26,24,90,88,86,30.11,29.96,5,2,9,0.07
2013-12-15,47,40,31,32,30,26,86,68,53,30.14,30.03,5,1,13,0.27
2013-12-16,62,44,31,35,31,27,88,62,31,30.08,29.94,4,1,11,0.03
2013-12-17,53,35,24,36,27,22,93,76,39,30.28,30.06,3,0,5,0.00
2013-12-18,63,42,22,36,29,20,91,63,30,30.26,29.87,8,2,14,0.00
2013-12-19,57,50,44,49,42,35,77,73,69,29.87,29.69,7,2,12,0.00
2013-12-20,31,31,31,29,29,29,92,91,91,29.81,29.79,0,0,10,0.01
2013-12-21,36,34,32,34,32,30,94,93,92,29.74,29.46,2,0,5,0.91
2013-12-22,36,30,24,34,27,20,94,87,81,30.32,29.62,5,2,12,0.00
2013-12-23,28,20,16,20,15,11,84,78,65,30.58,30.32,3,1,9,0.00
2013-12-24,33,18,10,19,11,6,84,75,55,30.58,30.33,7,2,11,0.00
2013-12-26,50,36,22,34,25,20,94,68,37,30.38,30.24,6,1,9,0.00
2013-12-27,58,34,19,34,25,16,91,72,31,30.38,30.25,4,1,7,0.00
2013-12-28,54,36,21,34,26,18,91,71,39,30.25,29.88,5,1,7,0.00
2013-12-29,43,27,18,36,20,10,87,75,68,30.26,29.87,4,2,11,0.00
2013-12-30,35,22,12,16,9,2,79,60,37,30.31,30.18,3,0,5,0.00
2013-12-31,55,36,15,27,19,11,87,53,27,30.36,30.11,7,2,15,0.00
2014-1-1,49,36,20,29,24,16,86,65,42,30.11,29.85,4,1,12,0.00
2014-1-2,20,13,3,16,6,-1,84,73,56,30.49,30.08,4,1,9,0.04